Falfurrias, TX

5:44 PM CST on November 18, 2019 (GMT -0600)
Falfurrias

Weather History for KBKS - September, 2019

Change the Weather History Date:

Sunday, September 22, 2019

  Actual Average (WUND) Record (WUND)
Temperature  
Mean Temperature 86 °F -  
Max Temperature 96 °F - - (-1)
Min Temperature 75 °F - - (-1)
Cooling Degree Days 20    
Growing Degree Days 36 (Base 50)    
Moisture  
Dew Point 74 °F    
Average Humidity 72    
Maximum Humidity 92    
Minimum Humidity 42    
Precipitation  
Precipitation 0.00 in - - ()
Sea Level Pressure  
Sea Level Pressure 29.96 in    
Wind  
Wind Speed 3 mph ()    
Max Wind Speed 12 mph    
Max Gust Speed 18 mph    
Visibility 9.8 miles    
Events      
Averages and records for this station are not official NWS values.
T = Trace of Precipitation, MM = Missing Value Source: Averaged Metar Reports

Daily Weather History Graph

Daily Weather History Graph

Search for Another Location

Airport or City:

Astronomy

Sep. 22, 2019 Rise Set
Actual Time 7:20 AM CDT 7:29 PM CDT
Civil Twilight 6:57 AM CDT 7:52 PM CDT
Nautical Twilight 6:30 AM CDT 8:19 PM CDT
Astronomical Twilight 6:03 AM CDT 8:46 PM CDT
Moon 12:43 AM CDT (9/22) 2:52 PM CDT (9/22)
Length of Visible Light 12h 54m
Length of Day
12h 08m
Last Quarter, 44% of the Moon is Illuminated
Sep 22
Last Quarter
Sep 28
New
Oct 5
First Quarter
Oct 13
Full
Oct 21
Last Quarter

Hourly Weather History & Observations

Time (CDT) Temp. Heat Index Dew Point Humidity Pressure Visibility Wind Dir Wind Speed Gust Speed Precip Events Conditions
12:15 AM 78.8 °F - 74.8 °F 88% 29.98 in 10.0 mi Calm Calm - N/A   Clear
12:35 AM 78.8 °F - 74.8 °F 88% 29.98 in 10.0 mi Calm Calm - N/A   Clear
12:55 AM 78.3 °F - 74.7 °F 89% 29.98 in 10.0 mi Calm Calm - N/A   Scattered Clouds
1:15 AM 78.1 °F - 74.5 °F 89% 29.98 in 10.0 mi Calm Calm - N/A   Scattered Clouds
1:35 AM 77.9 °F - 74.5 °F 89% 29.98 in 10.0 mi East 3.5 mph - N/A   Clear
1:55 AM 77.5 °F - 74.3 °F 90% 29.98 in 10.0 mi Calm Calm - N/A   Clear
2:15 AM 77.5 °F - 74.5 °F 90% 29.98 in 10.0 mi Calm Calm - N/A   Clear
2:35 AM 77.5 °F - 74.3 °F 90% 29.98 in 10.0 mi Calm Calm - N/A   Clear
2:55 AM 77.7 °F - 74.5 °F 90% 29.97 in 10.0 mi ESE 3.5 mph - N/A   Clear
3:15 AM 77.9 °F - 74.3 °F 89% 29.96 in 10.0 mi East 4.6 mph - N/A   Clear
3:35 AM 77.4 °F - 74.3 °F 90% 29.96 in 10.0 mi East 3.5 mph - N/A   Clear
3:55 AM 77.2 °F - 73.9 °F 90% 29.95 in 10.0 mi Calm Calm - N/A   Clear
4:15 AM 77.0 °F - 73.8 °F 90% 29.95 in 10.0 mi Calm Calm - N/A   Clear
4:35 AM 77.0 °F - 73.9 °F 90% 29.95 in 10.0 mi ESE 3.5 mph - N/A   Clear
4:55 AM 77.0 °F - 73.9 °F 90% 29.95 in 10.0 mi East 3.5 mph - N/A   Clear
5:15 AM 76.6 °F - 73.8 °F 91% 29.95 in 10.0 mi Calm Calm - N/A   Clear
5:35 AM 76.6 °F - 73.8 °F 91% 29.95 in 10.0 mi Calm Calm - N/A   Clear
5:55 AM 76.5 °F - 73.8 °F 91% 29.96 in 10.0 mi Calm Calm - N/A   Clear
6:15 AM 76.3 °F - 73.4 °F 91% 29.96 in 10.0 mi East 3.5 mph - N/A   Clear
6:35 AM 76.1 °F - 73.4 °F 91% 29.97 in 10.0 mi Calm Calm - N/A   Scattered Clouds
6:55 AM 76.1 °F - 73.4 °F 91% 29.97 in 7.0 mi East 3.5 mph - N/A   Scattered Clouds
7:15 AM 75.7 °F - 73.4 °F 92% 29.97 in 7.0 mi East 4.6 mph - N/A   Clear
7:35 AM 76.1 °F - 73.4 °F 91% 29.98 in 7.0 mi Calm Calm - N/A   Clear
7:55 AM 76.6 °F - 74.3 °F 92% 29.98 in 7.0 mi East 3.5 mph - N/A   Clear
8:15 AM 77.7 °F - 74.8 °F 91% 29.98 in 10.0 mi East 3.5 mph - N/A   Clear
8:35 AM 79.7 °F - 75.9 °F 88% 29.99 in 10.0 mi East 3.5 mph - N/A   Clear
8:55 AM 81.3 °F 88.3 °F 76.5 °F 85% 30.00 in 10.0 mi ESE 3.5 mph - N/A   Clear
9:15 AM 83.5 °F 92.9 °F 77.2 °F 81% 30.00 in 10.0 mi SE 4.6 mph - N/A   Clear
9:35 AM 85.3 °F 95.4 °F 76.6 °F 75% 30.00 in 10.0 mi SE 5.8 mph - N/A   Clear
9:55 AM 86.4 °F 97.8 °F 77.2 °F 74% 30.01 in 10.0 mi SE 4.6 mph - N/A   Clear
10:15 AM 86.0 °F 95.5 °F 75.6 °F 71% 30.01 in 10.0 mi SSE 6.9 mph - N/A   Scattered Clouds
10:35 AM 88.3 °F 98.9 °F 75.6 °F 66% 30.01 in 10.0 mi ESE 8.1 mph - N/A   Clear
10:55 AM 88.5 °F 97.8 °F 74.5 °F 63% 30.01 in 10.0 mi South 5.8 mph - N/A   Scattered Clouds
11:15 AM 89.6 °F 99.3 °F 74.3 °F 61% 30.01 in 10.0 mi SE 8.1 mph - N/A   Mostly Cloudy
11:35 AM 90.3 °F 98.7 °F 73.0 °F 57% 30.00 in 10.0 mi SSW 6.9 mph - N/A   Scattered Clouds
11:55 AM 91.6 °F 101.1 °F 73.9 °F 56% 30.00 in 10.0 mi SSE 8.1 mph - N/A   Scattered Clouds
12:15 PM 91.8 °F 100.3 °F 72.9 °F 54% 29.99 in 10.0 mi SSE 3.5 mph - N/A   Scattered Clouds
12:35 PM 92.5 °F 100.7 °F 72.5 °F 52% 29.98 in 10.0 mi SSW 6.9 mph - N/A   Clear
12:50 PM 91.8 °F 98.6 °F 71.4 °F 51% 29.98 in 10.0 mi East 5.8 mph - N/A   Scattered Clouds
1:15 PM 93.0 °F 99.5 °F 70.9 °F 48% 29.97 in 10.0 mi SE 6.9 mph - N/A   Scattered Clouds
1:35 PM 93.0 °F 100.1 °F 71.2 °F 49% 29.96 in 10.0 mi South 6.9 mph - N/A   Scattered Clouds
1:55 PM 95.4 °F 102.0 °F 70.0 °F 44% 29.95 in 10.0 mi South 8.1 mph - N/A   Scattered Clouds
2:15 PM 95.4 °F 101.4 °F 69.4 °F 43% 29.94 in 10.0 mi South 5.8 mph - N/A   Scattered Clouds
2:35 PM 95.9 °F 101.9 °F 69.3 °F 42% 29.93 in 10.0 mi ESE 5.8 mph - N/A   Scattered Clouds
2:55 PM 95.2 °F 102.3 °F 70.7 °F 45% 29.92 in 10.0 mi SE 8.1 mph - N/A   Scattered Clouds
3:15 PM 95.5 °F 103.7 °F 72.0 °F 46% 29.91 in 10.0 mi SE 9.2 mph - N/A   Clear
3:35 PM 95.5 °F 104.4 °F 72.1 °F 47% 29.91 in 10.0 mi East 9.2 mph - N/A   Clear
3:55 PM 95.9 °F 104.5 °F 71.8 °F 46% 29.91 in 10.0 mi ESE 8.1 mph - N/A   Clear
4:15 PM 95.7 °F 103.4 °F 71.2 °F 45% 29.90 in 10.0 mi ESE 6.9 mph - N/A   Clear
4:35 PM 96.3 °F 103.9 °F 70.9 °F 44% 29.90 in 10.0 mi ESE 10.4 mph - N/A   Scattered Clouds
4:55 PM 92.5 °F 100.1 °F 71.8 °F 51% 29.90 in 10.0 mi ESE 8.1 mph 16.1 mph N/A   Scattered Clouds
5:15 PM 94.3 °F 103.5 °F 73.0 °F 50% 29.90 in 10.0 mi East 11.5 mph - N/A   Clear
5:35 PM 94.1 °F 103.1 °F 72.9 °F 50% 29.90 in 10.0 mi ESE 10.4 mph 16.1 mph N/A   Clear
5:55 PM 93.4 °F 102.1 °F 73.0 °F 51% 29.89 in 10.0 mi ESE 9.2 mph - N/A   Clear
6:15 PM 92.7 °F 101.7 °F 73.0 °F 53% 29.90 in 10.0 mi ESE 10.4 mph 17.3 mph N/A   Clear
6:35 PM 90.7 °F 99.0 °F 72.9 °F 56% 29.91 in 10.0 mi ESE 10.4 mph 17.3 mph N/A   Clear
6:55 PM 90.0 °F 98.5 °F 73.2 °F 58% 29.91 in 10.0 mi East 10.4 mph 18.4 mph N/A   Clear
7:15 PM 88.9 °F 97.1 °F 73.4 °F 60% 29.91 in 10.0 mi ESE 9.2 mph - N/A   Clear
7:35 PM 88.0 °F 94.7 °F 72.0 °F 59% 29.92 in 10.0 mi ESE 8.1 mph - N/A   Clear
7:55 PM 86.9 °F 93.3 °F 72.1 °F 61% 29.92 in 10.0 mi ESE 8.1 mph - N/A   Clear
8:15 PM 86.0 °F 92.6 °F 72.5 °F 64% 29.93 in 10.0 mi ESE 8.1 mph - N/A   Clear
8:35 PM 85.5 °F 92.6 °F 73.6 °F 67% 29.94 in 10.0 mi ESE 10.4 mph - N/A   Clear
8:55 PM 84.9 °F 92.5 °F 74.3 °F 70% 29.95 in 10.0 mi ESE 8.1 mph - N/A   Clear
9:15 PM 84.2 °F 91.9 °F 74.8 °F 73% 29.96 in 10.0 mi ESE 5.8 mph - N/A   Clear
9:35 PM 83.5 °F 91.2 °F 75.2 °F 76% 29.96 in 10.0 mi ESE 4.6 mph - N/A   Clear
9:55 PM 82.6 °F 89.7 °F 75.2 °F 78% 29.96 in 10.0 mi ESE 4.6 mph - N/A   Clear
10:15 PM 82.0 °F 88.9 °F 75.2 °F 80% 29.97 in 10.0 mi Calm Calm - N/A   Clear
10:35 PM 81.5 °F 87.8 °F 75.2 °F 81% 29.98 in 10.0 mi ESE 3.5 mph - N/A   Clear
10:55 PM 81.5 °F 87.8 °F 75.2 °F 81% 29.98 in 10.0 mi ESE 3.5 mph - N/A   Clear
11:15 PM 80.6 °F 86.2 °F 75.2 °F 84% 29.99 in 10.0 mi ESE 5.8 mph - N/A   Clear
11:35 PM 80.6 °F 86.0 °F 75.0 °F 83% 29.99 in 10.0 mi East 3.5 mph - N/A   Clear
11:55 PM 80.1 °F 84.9 °F 74.8 °F 84% 29.98 in 10.0 mi ESE 4.6 mph - N/A   Clear